This is the latest recevied weather packets stored in our database for station/object W4UWO. If no packets are shown the sender has not sent any weather packets the latest 10 day(s).
| Time | Temp. | Humidity | Pressure | Rain* | Wind** | Luminosity | Snow |
|---|---|---|---|---|---|---|---|
| 1788287974 | 35° C | 39% | 1020.1 hPa | 0 mm | - | 654 W/m² | - |
| 1788287673 | 35° C | 39% | 1020.1 hPa | 0 mm | - | 185 W/m² | - |
| 1788287369 | 35° C | 40% | 1020.3 hPa | 0 mm | - | 871 W/m² | - |
| 1788287065 | 36.11° C | 37% | 1020.2 hPa | 0 mm | - | 229 W/m² | - |
| 1788286760 | 36.11° C | 39% | 1020.3 hPa | 0 mm | - | 889 W/m² | - |
| 1788286460 | 35.56° C | 41% | 1020.3 hPa | 0 mm | - | 892 W/m² | - |
| 1788286159 | 35.56° C | 41% | 1020.2 hPa | 0 mm | - | 872 W/m² | - |
| 1788285858 | 35° C | 42% | 1020.2 hPa | 0 mm | - | 875 W/m² | - |
| 1788285556 | 35° C | 40% | 1020.4 hPa | 0 mm | - | 153 W/m² | - |
| 1788285252 | 35° C | 41% | 1020.3 hPa | 0 mm | - | 857 W/m² | - |
| 1788284947 | 35° C | 40% | 1020.5 hPa | 0 mm | - | 868 W/m² | - |
| 1788284643 | 34.44° C | 42% | 1020.7 hPa | 0 mm | - | 884 W/m² | - |
| 1788284338 | 35° C | 45% | 1020.6 hPa | 0 mm | - | 210 W/m² | - |
| 1788284033 | 35.56° C | 43% | 1020.7 hPa | 0 mm | - | 190 W/m² | - |
| 1788283730 | 35° C | 43% | 1020.7 hPa | 0 mm | - | 904 W/m² | - |
| 1788283429 | 35.56° C | 43% | 1020.6 hPa | 0 mm | - | 874 W/m² | - |
| 1788283127 | 35° C | 44% | 1020.9 hPa | 0 mm | - | 876 W/m² | - |
| 1788282826 | 35° C | 44% | 1021.1 hPa | 0 mm | - | 867 W/m² | - |
| 1788282525 | 34.44° C | 44% | 1021 hPa | 0 mm | - | 858 W/m² | - |
| 1788282220 | 34.44° C | 45% | 1021.2 hPa | 0 mm | - | 861 W/m² | - |
| 1788281920 | 35° C | 45% | 1021.2 hPa | 0 mm | - | 856 W/m² | - |
| 1788281614 | 35° C | 45% | 1021.4 hPa | 0 mm | - | 830 W/m² | - |
| 1788281311 | 35° C | 45% | 1021.2 hPa | 0 mm | - | 815 W/m² | - |
| 1788281006 | 35° C | 45% | 1021.4 hPa | 0 mm | - | 816 W/m² | - |
| 1788280706 | 35° C | 46% | 1021.3 hPa | 0 mm | - | 781 W/m² | - |
* Rain latest hour (hover to see other rain measurements)
** Current wind speed in m/s (hover to see current wind gust speed)